Rio Grande, Argentina

12:34 AM America on April 23, 2018 (GMT +0000)
Rio Grande

Weather History for SAWE - September, 2013

Change the Weather History Date:

Friday, September 20, 2013

  Actual Average Record
Temperature  
Mean Temperature 33 °F -  
Max Temperature 42 °F 47 °F 57 °F (2016)
Min Temperature 24 °F 32 °F 23 °F (2006)
Degree Days  
Heating Degree Days 32    
Moisture  
Dew Point 30 °F    
Average Humidity 88    
Maximum Humidity 100    
Minimum Humidity 75    
Precipitation  
Precipitation 0.00 in - - ()
Sea Level Pressure  
Sea Level Pressure 29.78 in    
Wind  
Wind Speed 6 mph ()    
Max Wind Speed 14 mph    
Max Gust Speed -    
Visibility 6.2 miles    
Events      
Averages and records for this station are not official NWS values.
T = Trace of Precipitation, MM = Missing Value Source: Averaged Metar Reports

Daily Weather History Graph

Daily Weather History Graph

Search for Another Location

Airport or City:

Astronomy

Sep. 20, 2013 Rise Set
Actual Time 7:23 AM -03 7:25 PM -03
Civil Twilight 6:48 AM -03 8:00 PM -03
Nautical Twilight 6:07 AM -03 8:42 PM -03
Astronomical Twilight 5:24 AM -03 9:25 PM -03
Moon 9:21 PM -03 (9/20) 7:30 AM -03 (9/20)
Length of Visible Light 13h 11m
Length of Day
12h 01m
Full, 98% of the Moon is Illuminated
Sep 20
Full
Sep 27
Last Quarter
Oct 4
New
Oct 11
First Quarter
Oct 18
Full

Hourly Weather History & Observations

Time (-03) Temp. Windchill Dew Point Humidity Pressure Visibility Wind Dir Wind Speed Gust Speed Precip Events Conditions
12:00 AM 30.2 °F 23.4 °F 30.2 °F 100% 29.59 in - WSW 6.9 mph - N/A   Clear
1:00 AM 30.2 °F 25.4 °F 30.2 °F 100% 29.59 in - SW 4.6 mph - N/A   Clear
2:00 AM 30.2 °F 24.3 °F 28.4 °F 93% 29.62 in - SW 5.8 mph - N/A   Clear
4:00 AM 24.8 °F 17.9 °F 23.0 °F 93% 29.65 in - WSW 5.8 mph - N/A   Clear
6:00 AM 24.8 °F 17.9 °F 23.0 °F 93% 29.68 in - WSW 5.8 mph - N/A   Clear
7:00 AM 24.8 °F 16.9 °F 23.0 °F 93% 29.71 in - WSW 6.9 mph - N/A   Clear
8:00 AM 24.8 °F 17.9 °F 21.2 °F 86% 29.74 in 6.2 mi SSW 5.8 mph - N/A   Partly Cloudy
9:00 AM 28.4 °F 22.2 °F 24.8 °F 86% 29.77 in 6.2 mi WSW 5.8 mph - N/A   Partly Cloudy
11:00 AM 37.4 °F 34.9 °F 32.0 °F 81% 29.83 in 6.2 mi South 3.5 mph - N/A   Partly Cloudy
12:00 PM 41.0 °F 37.1 °F 35.6 °F 81% 29.83 in 6.2 mi SSE 5.8 mph - N/A   Partly Cloudy
1:00 PM 41.0 °F 39.0 °F 33.8 °F 76% 29.86 in 6.2 mi East 3.5 mph - N/A   Partly Cloudy
2:00 PM 41.0 °F 39.0 °F 35.6 °F 81% 29.86 in 6.2 mi SW 3.5 mph - N/A   Scattered Clouds
3:00 PM 42.8 °F 38.6 °F 37.4 °F 81% 29.86 in 6.2 mi NNE 6.9 mph - N/A   Mostly Cloudy
4:00 PM 41.0 °F 34.7 °F 35.6 °F 81% 29.86 in 6.2 mi North 10.4 mph - N/A   Mostly Cloudy
6:00 PM 39.2 °F 31.6 °F 32.0 °F 75% 29.89 in 6.2 mi NNW 12.7 mph - N/A   Mostly Cloudy
7:00 PM 37.4 °F 28.9 °F 33.8 °F 87% 29.89 in 6.2 mi NNW 13.8 mph - N/A   Partly Cloudy
8:00 PM 35.6 °F 27.5 °F 33.8 °F 93% 29.89 in - NW 11.5 mph - N/A   Clear
9:00 PM 32.0 °F 24.2 °F 30.2 °F 93% 29.89 in - NW 9.2 mph - N/A   Clear
10:00 PM 30.2 °F 23.4 °F 30.2 °F 100% 29.86 in - WNW 6.9 mph - N/A   Clear